sat.trackr.live / text

‹ back to catalog

ASIASAT 5

NORAD 35696 · 2009-042A

PAYLOAD ACTIVE UNKNOWN

§ Identity

Operator
Country
AC
Launch date
2009-08-11
Launch site
TYMSC
Launch vehicle
Mass (kg)
RCS (m²)
15.85

Purposes: comms

External: N2YO · Heavens-Above · Gunter

§ Orbital elements

Epoch: 2026-09-04T01:05:34.476288Z

Period
1,436.09 min
Inclination
0.0437°
Eccentricity
0.0001614
Mean motion
1.00271926 rev/d
Perigee alt
35,779.8 km
Apogee alt
35,793.4 km
Semi-major
42,164.7 km
B*
0.0000e+0
RAAN
257.3060°
Arg perigee
248.4593°
Mean anomaly
314.3244°
Rev number
6,250

§ Raw data

ASIASAT 51 35696U 09042A   26247.04553792 -.00000312  00000+0  00000+0 0  99952 35696   0.0437 257.3060 0001614 248.4593 314.3244  1.00271926 62507

JSON: /api/v1/satellites/35696 · /tle

For live sub-satellite position, see the globe view (requires WebGL).

§ Visibility from observer

Set your observer location to see the next 7 days of passes ≥ 10°. The values pass through the URL so the page stays shareable.

No JS? Fill the form by hand. The geolocation button needs JavaScript.